FLOCK 4E'-1

Last updated on Sat Nov 28 2020 00:02:02 GMT+0000 (Coordinated Universal Time)

1 46813U 20077A 20332.51921484 .00001665 00000-0 91300-4 0 9997 2 46813 97.4967 32.5884 0012080 222.4425 249.2261 15.15516330 4480
UTC large
Height (km)
Speed (km/s)
/
Latitude / Longitude
Inclination (degrees)
Orbital Period (minutes)
Azimuth
Elevation
Range (km)
Doppler Factor

Next 0 passes for location: London (51.5072 / 0.1276)

Sorry there are no passes over London.